Wind_Speed
48 50 48 44 44 49 47 45 48 43 43 38 36 33 30 28 25 24 23 24 27 25 18 22 25 21 27 28 29 25 19 23 30 32 35 32 32 28 24 26 26 27 31
55 54 53 50 49 46 50 51 49 47 46 39 35 36 37 30 30 27 25 26 22 27 22 25 28 17 27 25 33 26 18 21 25 34 35 34 31 32 25 25 26 27 30
59 59 57 56 52 51 51 55 54 54 50 45 39 38 39 35 32 33 30 30 26 27 21 28 30 20 30 29 30 27 24 21 22 29 34 37 31 32 27 25 26 26 28
62 59 59 59 56 59 57 57 57 55 53 50 46 42 39 39 35 37 28 29 29 27 27 25 29 33 31 31 28 22 29 27 19 27 32 35 30 33 30 26 26 26 27
65 63 63 61 58 55 58 60 61 59 59 54 52 49 44 42 39 39 38 31 29 32 27 27 31 36 34 29 30 23 23 26 20 28 32 32 26 32 31 30 26 26 26
67 68 67 65 65 64 58 61 67 64 64 59 57 54 49 49 45 42 42 37 36 36 35 30 31 37 37 28 29 25 20 23 27 25 32 25 28 28 31 40 34 25 27
69 69 68 70 66 63 62 62 67 67 66 61 61 60 60 55 50 49 47 46 47 39 44 42 39 37 39 40 34 27 25 31 24 28 26 21 28 29 31 35 37 32 29
74 76 71 71 68 67 68 68 69 69 70 70 67 66 64 64 60 53 52 54 50 51 51 45 40 39 40 42 41 35 28 33 27 26 25 29 29 29 26 30 33 39 38
82 79 77 71 72 70 72 74 71 72 71 71 70 70 71 71 66 59 56 59 56 57 54 52 47 43 43 44 44 42 37 32 26 25 27 24 31 30 30 26 29 35 38
83 83 78 79 75 78 76 77 80 77 74 73 74 76 72 72 72 66 64 63 63 56 52 55 54 50 47 46 49 47 41 36 30 27 32 29 27 31 32 27 27 33 36
88 85 86 86 84 83 80 79 76 77 81 78 75 75 78 78 77 71 70 70 65 64 61 64 57 51 51 51 49 51 47 41 33 33 33 29 27 32 34 31 26 33 32
102 99 104 96 92 91 92 86 89 86 89 88 86 85 80 78 81 80 75 73 72 75 68 58 57 56 56 55 51 53 50 48 44 36 32 33 35 31 32 38 31 32 31
107 109 107 106 104 101 98 93 91 93 92 89 88 88 88 87 89 90 81 80 79 78 73 76 66 58 58 64 62 61 53 52 44 39 38 34 36 31 37 45 42 31 32
115 116 114 114 111 108 110 107 102 103 97 98 101 96 95 94 94 94 87 87 85 84 82 81 76 73 72 65 70 63 58 55 51 47 42 39 40 36 34 35 40 43 35
116 117 119 116 115 115 119 117 112 111 111 106 108 107 107 103 101 100 95 90 90 91 91 93 91 84 80 79 74 66 61 60 63 56 51 44 43 39 39 32 41 38 40
108 114 120 120 116 117 117 119 118 119 119 118 116 116 114 112 110 103 104 101 97 92 91 89 90 91 89 85 85 77 69 67 68 62 56 54 46 45 45 40 41 38 37
99 101 106 107 109 111 111 113 113 114 114 114 117 118 118 116 114 113 108 108 105 101 95 92 91 91 94 88 88 81 77 75 74 69 61 58 55 49 50 50 46 47 33
99 98 99 100 102 103 103 105 107 108 108 107 106 106 108 112 115 116 114 114 110 104 100 93 89 89 89 88 91 85 82 80 76 74 69 66 60 55 53 49 45 51 42
98 98 97 97 98 101 102 101 101 102 101 98 97 98 99 101 102 101 101 103 101 98 94 94 93 88 85 85 79 86 91 90 86 79 75 70 65 60 57 54 48 51 52
99 98 98 97 97 97 96 96 98 98 98 98 98 98 96 95 95 96 96 95 94 93 93 92 91 91 97 97 92 82 77 74 86 85 81 74 71 66 60 56 53 50 45
102 101 101 100 100 99 97 98 99 99 99 100 99 99 98 98 97 96 95 95 95 93 92 90 92 93 90 94 97 98 96 93 89 86 83 77 76 72 68 64 58 53 47
109 108 107 106 104 102 102 101 101 100 100 101 102 102 101 99 98 98 98 97 96 97 97 97 95 95 94 93 94 96 99 99 95 84 82 81 80 80 72 68 64 59 52
111 111 110 109 108 107 107 106 105 104 103 104 105 105 102 102 102 101 101 100 100 101 100 98 98 97 97 96 95 95 94 102 104 96 89 93 86 86 81 75 71 67 60
116 115 114 112 111 111 111 111 110 109 107 107 108 106 104 104 104 104 104 104 104 103 103 101 99 97 98 99 98 98 97 96 104 106 98 91 95 88 91 84 78 75 70
109 111 114 114 114 113 112 112 112 112 112 110 109 108 109 108 109 109 107 106 105 104 105 105 104 103 101 102 101 100 103 101 100 102 109 104 99 93 94 97 85 79 75
106 105 105 106 108 109 110 110 111 110 109 108 109 110 112 112 113 111 113 112 110 109 107 105 104 103 101 98 99 101 103 103 105 101 105 109 101 99 96 97 87 80 80
Wind_Direction
242 244 246 250 251 247 250 262 268 270 272 277 280 287 296 292 295 305 305 310 315 322 323 329 341 335 347 349 353 331 359 1 14 21 18 14 11 9 4 2 2 7 6
247 243 245 246 252 251 251 257 262 264 268 271 272 281 293 284 290 290 296 303 308 318 297 323 330 319 340 349 346 344 327 359 14 22 19 11 9 10 8 4 3 7 10
245 248 246 248 250 253 257 252 259 261 263 268 268 276 282 281 281 288 290 291 299 311 286 311 315 308 328 340 342 340 336 349 6 6 18 12 8 8 5 6 4 7 11
246 245 249 251 253 251 253 253 257 259 259 265 263 272 277 277 276 286 279 283 290 301 299 304 306 314 307 324 336 322 344 333 347 349 3 6 8 8 7 3 4 7 12
246 246 246 249 251 250 249 251 256 258 259 261 263 266 276 272 270 274 276 276 275 291 289 295 299 304 311 315 323 322 331 343 325 351 351 4 12 14 17 12 7 7 10
245 246 244 245 248 248 249 251 254 254 256 259 262 262 269 273 268 270 272 273 271 277 286 284 289 296 294 297 310 317 325 330 332 334 338 7 12 21 26 26 18 8 8
249 251 248 250 247 248 242 247 250 254 254 256 259 262 265 269 272 270 267 272 276 270 278 286 288 288 290 299 297 299 308 323 315 325 323 347 2 19 8 13 23 20 7
253 248 247 249 249 251 249 247 251 255 255 256 258 261 267 268 269 269 269 274 272 273 275 277 284 280 283 289 292 293 295 309 307 316 322 319 328 352 0 12 17 10 7
248 248 250 249 249 250 253 254 254 249 252 254 257 260 264 269 268 266 270 272 273 274 269 272 278 278 276 281 284 289 290 295 302 303 322 312 316 327 338 346 349 360 15
245 246 246 249 251 252 254 253 255 252 251 256 256 258 263 266 268 267 267 270 270 269 268 272 273 274 275 278 281 287 287 290 299 292 312 301 315 316 329 343 349 348 352
247 238 243 247 252 248 252 253 253 254 255 254 258 259 261 263 260 265 267 269 267 268 265 272 266 271 268 274 275 278 281 283 285 291 296 290 310 308 321 333 338 340 345
253 251 252 253 255 253 256 257 255 258 254 254 257 255 253 255 257 258 260 268 266 263 271 262 264 262 267 269 270 271 275 277 280 284 288 287 297 302 313 324 327 335 335
254 254 253 256 257 258 258 256 257 257 254 250 249 255 254 260 258 263 262 263 269 268 265 268 268 264 263 271 273 275 268 268 271 276 281 276 287 290 302 302 310 324 330
252 252 253 255 256 257 259 261 262 262 259 256 259 260 263 263 259 266 264 267 268 269 267 269 268 265 270 269 270 270 266 261 268 271 273 273 273 283 285 297 309 310 316
249 250 253 255 256 256 257 259 261 262 263 263 263 264 264 265 265 263 265 266 268 268 269 271 269 267 266 266 268 265 262 261 265 265 267 266 266 272 280 280 294 296 308
247 249 250 250 253 254 255 257 257 259 260 262 263 263 263 263 263 264 263 264 264 264 261 262 263 264 264 262 266 264 258 260 260 261 261 264 261 264 273 278 286 291 295
244 244 246 248 250 251 251 253 255 257 257 258 260 260 260 262 262 261 262 264 264 263 260 259 259 262 263 260 262 260 255 253 258 258 254 255 259 257 264 269 274 280 282
244 244 244 246 247 249 250 251 252 254 255 255 256 257 258 260 260 262 262 262 262 260 256 253 252 255 259 261 261 256 255 253 254 253 257 255 252 251 257 256 264 273 273
244 245 246 246 247 248 248 248 250 251 252 253 254 256 256 257 257 258 259 260 258 258 256 255 252 247 245 248 255 260 256 254 255 248 252 251 248 246 245 250 248 264 268
245 245 246 247 247 248 249 248 248 249 251 252 253 253 254 255 256 257 257 256 258 258 257 253 250 248 248 245 245 247 253 252 254 250 249 249 244 243 242 243 243 252 250
247 247 247 247 248 249 249 249 250 251 251 251 251 252 253 253 253 254 255 255 256 256 255 254 253 251 248 245 243 246 245 247 255 255 246 244 243 240 239 241 239 240 239
248 248 248 248 248 248 249 250 251 252 252 253 253 254 254 255 255 255 255 255 255 255 256 255 253 252 251 248 245 243 241 244 247 248 246 245 240 238 235 238 239 237 236
250 249 249 249 250 251 251 251 252 253 254 255 255 255 256 256 256 257 257 257 256 256 256 256 255 254 253 251 249 246 242 241 243 240 243 249 241 238 235 237 240 236 233
249 250 250 251 251 252 252 252 252 253 254 255 256 257 257 257 258 258 258 257 257 257 258 258 258 256 254 252 251 249 246 241 240 238 239 242 246 240 236 236 238 235 234
251 251 251 250 251 252 252 253 254 255 256 256 257 257 256 257 258 260 260 259 258 258 258 259 258 256 256 255 253 250 248 244 240 235 235 238 241 242 236 238 235 233 234
249 250 251 251 252 252 252 253 253 254 256 257 257 257 257 257 259 260 260 261 262 262 261 260 260 259 258 255 254 251 248 245 241 238 232 231 237 239 240 236 235 231 232
Height
10853 10856 10859 10862 10864 10865 10868 10870 10873 10876 10877 10879 10879 10883 10885 10885 10886 10886 10887 10887 10887 10889 10889 10888 10889 10887 10886 10884 10882 10879 10877 10874 10871 10867 10863 10859 10855 10850 10846 10843 10839 10835 10830
10846 10849 10852 10855 10857 10859 10862 10865 10867 10870 10871 10874 10875 10876 10879 10881 10881 10883 10884 10884 10885 10886 10886 10887 10888 10886 10886 10884 10881 10878 10877 10875 10872 10868 10864 10861 10856 10851 10847 10844 10840 10835 10831
10838 10842 10845 10849 10851 10852 10856 10859 10861 10864 10866 10868 10870 10872 10874 10876 10877 10878 10880 10881 10882 10882 10884 10884 10884 10886 10885 10885 10881 10879 10878 10877 10873 10871 10866 10863 10858 10853 10848 10845 10841 10836 10832
10830 10832 10836 10840 10843 10845 10848 10851 10853 10857 10860 10863 10865 10867 10869 10870 10872 10874 10876 10878 10879 10880 10880 10882 10881 10883 10882 10884 10882 10879 10877 10876 10874 10871 10868 10864 10860 10855 10850 10846 10842 10838 10833
10821 10822 10827 10831 10834 10837 10840 10843 10846 10849 10851 10855 10858 10861 10863 10865 10866 10868 10871 10873 10875 10877 10878 10879 10880 10880 10880 10880 10881 10879 10877 10875 10875 10872 10870 10865 10862 10858 10853 10847 10843 10839 10835
10810 10813 10816 10820 10823 10829 10831 10835 10838 10840 10843 10846 10850 10854 10857 10859 10860 10862 10865 10868 10870 10872 10873 10875 10877 10877 10876 10878 10879 10878 10877 10875 10873 10873 10872 10869 10864 10861 10856 10850 10845 10841 10838
10797 10803 10807 10810 10812 10816 10821 10825 10828 10832 10835 10837 10840 10844 10848 10851 10854 10856 10859 10861 10864 10867 10869 10871 10873 10874 10873 10873 10876 10876 10876 10875 10873 10873 10873 10871 10867 10863 10860 10855 10849 10844 10841
10787 10791 10796 10799 10801 10804 10810 10814 10818 10822 10826 10829 10832 10834 10838 10841 10846 10848 10851 10854 10857 10861 10863 10865 10868 10869 10869 10868 10871 10872 10873 10873 10872 10871 10871 10870 10868 10865 10862 10859 10854 10848 10843
10775 10779 10783 10788 10791 10794 10797 10801 10806 10812 10815 10819 10823 10827 10829 10830 10836 10840 10842 10845 10849 10853 10856 10859 10862 10864 10864 10865 10866 10868 10867 10870 10870 10869 10869 10868 10866 10866 10862 10860 10856 10852 10848
10762 10766 10770 10777 10779 10783 10787 10791 10793 10799 10803 10807 10811 10815 10817 10820 10823 10828 10832 10836 10840 10843 10846 10850 10855 10858 10859 10861 10862 10863 10862 10865 10867 10865 10866 10866 10865 10864 10862 10860 10858 10855 10851
10749 10753 10757 10761 10765 10771 10774 10778 10783 10787 10791 10795 10800 10804 10809 10810 10813 10816 10820 10824 10829 10833 10838 10842 10845 10849 10852 10853 10855 10858 10857 10859 10862 10863 10862 10862 10863 10863 10861 10860 10857 10855 10853
10730 10735 10738 10744 10749 10752 10756 10762 10768 10772 10778 10782 10787 10791 10794 10797 10801 10804 10807 10811 10816 10818 10825 10830 10833 10837 10841 10845 10847 10851 10850 10853 10855 10858 10858 10858 10858 10859 10859 10859 10857 10855 10854
10713 10717 10721 10726 10730 10734 10739 10744 10749 10755 10760 10763 10766 10774 10779 10782 10786 10791 10795 10798 10801 10803 10808 10815 10819 10823 10829 10832 10837 10844 10844 10844 10848 10851 10853 10852 10853 10854 10855 10856 10855 10855 10853
10694 10697 10702 10708 10712 10717 10721 10725 10730 10736 10742 10747 10750 10755 10760 10766 10770 10774 10777 10783 10789 10791 10793 10798 10804 10810 10814 10819 10826 10831 10836 10834 10839 10844 10847 10847 10849 10849 10849 10851 10853 10852 10852
10673 10679 10684 10688 10692 10697 10702 10707 10712 10716 10721 10725 10731 10736 10741 10744 10750 10757 10761 10766 10771 10777 10777 10781 10788 10791 10798 10804 10811 10816 10824 10826 10828 10834 10838 10840 10842 10842 10844 10845 10847 10848 10849
10649 10657 10664 10669 10673 10678 10682 10686 10692 10698 10703 10706 10709 10716 10720 10725 10729 10734 10743 10751 10755 10759 10765 10764 10767 10773 10781 10789 10796 10802 10810 10814 10816 10822 10827 10831 10834 10836 10838 10839 10841 10844 10844
10627 10633 10641 10647 10652 10657 10661 10665 10670 10675 10679 10685 10689 10694 10698 10702 10707 10713 10718 10728 10738 10744 10748 10751 10753 10752 10757 10769 10778 10785 10794 10801 10804 10808 10815 10821 10825 10828 10829 10832 10833 10836 10839
10606 10611 10617 10624 10631 10636 10641 10645 10649 10654 10659 10663 10667 10670 10674 10680 10684 10688 10696 10704 10712 10721 10730 10735 10738 10741 10738 10741 10754 10766 10776 10785 10790 10793 10801 10809 10815 10818 10821 10823 10825 10827 10831
10585 10591 10596 10603 10609 10615 10620 10625 10630 10635 10639 10643 10646 10650 10654 10658 10663 10667 10672 10679 10688 10696 10704 10713 10722 10728 10730 10733 10730 10736 10753 10768 10772 10781 10785 10794 10803 10807 10811 10813 10817 10820 10822
10567 10571 10576 10581 10588 10593 10597 10603 10609 10614 10619 10624 10628 10632 10635 10640 10643 10648 10653 10660 10665 10671 10678 10689 10698 10707 10713 10719 10724 10724 10728 10735 10751 10765 10770 10779 10788 10796 10798 10804 10808 10810 10814
10544 10550 10556 10561 10566 10572 10577 10583 10588 10593 10598 10603 10607 10612 10617 10622 10626 10630 10634 10639 10644 10651 10658 10665 10673 10682 10691 10697 10706 10711 10718 10722 10727 10740 10755 10762 10771 10779 10785 10792 10797 10801 10804
10521 10528 10534 10539 10545 10550 10555 10561 10566 10571 10576 10580 10584 10590 10596 10602 10607 10612 10615 10620 10625 10629 10635 10642 10651 10658 10663 10674 10683 10689 10700 10704 10717 10721 10729 10744 10750 10761 10771 10777 10784 10789 10793
10496 10503 10510 10517 10522 10528 10533 10538 10544 10549 10554 10558 10562 10568 10575 10580 10584 10589 10594 10598 10603 10608 10612 10619 10627 10634 10641 10647 10656 10664 10676 10688 10693 10707 10711 10719 10731 10741 10751 10762 10767 10776 10782
10470 10477 10486 10493 10499 10505 10510 10516 10521 10525 10530 10535 10539 10546 10551 10556 10560 10565 10570 10574 10579 10585 10588 10595 10601 10608 10616 10621 10631 10638 10649 10663 10671 10684 10694 10697 10707 10719 10729 10742 10751 10759 10769
10447 10454 10461 10468 10475 10482 10487 10493 10497 10500 10505 10512 10518 10524 10528 10531 10534 10539 10544 10549 10554 10559 10563 10567 10573 10582 10590 10595 10601 10609 10619 10634 10644 10659 10672 10678 10682 10696 10707 10720 10732 10742 10755
10423 10430 10437 10443 10450 10455 10461 10466 10472 10478 10483 10489 10495 10499 10501 10505 10508 10514 10518 10521 10525 10531 10536 10540 10545 10550 10557 10566 10571 10579 10588 10598 10612 10628 10644 10655 10664 10673 10680 10695 10711 10729 10739